Location: Austin
(30.3000°N, 97.7500°W)
Time: 04:50:24
(UTC-06:00)

COSMOS 2455 - Pass Details

Date: 05 February 2026
Orbit: 899 x 909 km, 67.1° (Epoch: 14 February)

Event Time Altitude Azimuth Distance (km) Brightness Sun altitude
Rises 05:46:08 0° 181° (S) 3,513 6.0 -20.4°
Reaches altitude 10° 05:48:47 10° 174° (S) 2,576 5.4 -19.8°
Maximum altitude 05:54:13 37° 108° (ESE) 1,369 4.4 -18.7°
Drops below altitude 10° 05:59:41 10° 43° (NE) 2,593 5.7 -17.5°
Sets 06:02:22 0° 35° (NE) 3,538 6.3 -16.9°
